{"data":{"norad_id":62557,"epoch":"2026-09-21T15:53:00.856608Z","epoch_age_seconds":70964,"freshness":"FRESH","line1":"1 62557U 25006D   26264.66181547  .00124830  00000+0  96293-3 0  9995","line2":"2 62557  43.0001  38.6481 0001513 235.2714 124.8012 15.70811542 97423","mean_motion":15.70811542,"eccentricity":0.0001513,"inclination_deg":43.0001,"raan_deg":38.6481,"arg_perigee_deg":235.2714,"mean_anomaly_deg":124.8012,"bstar":0.00096293,"rev_number":9742,"period_min":91.672359254921,"perigee_km":355.55743894897,"apogee_km":357.59536322414,"semimajor_km":6734.7134010866,"source":"CELESTRAK","updated_at":"2026-09-22T09:00:49.626492Z"}}